Find Kosmos-381

NORAD ID: 4783 Int'l Des: 1970-102 Owner: OKB10 Country: SU operational
LEOCIRCULAR

Live-Position

3D-Globus wird geladen...

Über Kosmos-381

Beschreibung wird geladen...

Nächste Überflüge

Passes for default location (London). Set your location on the main map for personalized predictions.

Höhenverlauf

Loading altitude history...

Zweizeiliger Elementsatz

1 4783U 70102A 26106.71358225 .00000012 00000-0 36029-4 0 9997
2 4783 74.0299 113.4401 0030073 148.2623 212.0317 13.75041001777704
Epoch: 16. Apr. 2026 • Age: 19 hours

Aktueller Status

Höhe 1003.9 km
Geschwindigkeit 7.34 km/s
Subsatellitenpunkt -3.71°S, 80.7°E
Typ other

Most Searched